Temp
-16 -16 -15 -15 -15 -15 -15 -15 -15 -15 -15 -15 -15 -16 -16 -15 -14 -13 -13 -13 -13 -13 -12 -12 -11 -12 -12 -12 -11 -11 -10 -10 -11 -10 -11 -11 -10 -10 -10 -10 -9 -9 -9 -9 -8
-16 -16 -15 -16 -17 -18 -19 -18 -17 -16 -16 -17 -16 -17 -17 -16 -14 -13 -14 -14 -13 -13 -13 -12 -12 -12 -12 -12 -12 -11 -10 -10 -11 -11 -11 -11 -11 -11 -10 -11 -10 -9 -9 -9 -9
-16 -16 -17 -21 -23 -25 -25 -24 -23 -21 -19 -18 -18 -19 -18 -17 -15 -13 -14 -14 -14 -13 -13 -13 -12 -12 -12 -12 -11 -11 -11 -11 -12 -12 -11 -11 -11 -11 -10 -11 -10 -9 -9 -9 -9
-16 -18 -25 -27 -27 -27 -26 -26 -26 -24 -22 -21 -21 -19 -19 -17 -15 -15 -15 -14 -14 -14 -13 -14 -13 -12 -11 -11 -12 -11 -12 -12 -12 -11 -11 -11 -11 -11 -11 -11 -11 -10 -10 -10 -9
-18 -24 -27 -28 -28 -28 -27 -26 -26 -25 -23 -22 -20 -20 -18 -18 -17 -16 -16 -15 -14 -14 -14 -14 -14 -13 -12 -13 -12 -11 -12 -12 -12 -12 -11 -11 -11 -11 -11 -11 -11 -10 -10 -10 -10
-22 -27 -27 -28 -28 -28 -27 -27 -26 -25 -23 -22 -21 -21 -19 -19 -19 -18 -17 -16 -16 -14 -14 -14 -14 -13 -13 -13 -13 -12 -14 -12 -11 -11 -11 -11 -10 -11 -11 -11 -11 -11 -11 -10 -10
-25 -27 -27 -28 -28 -27 -27 -27 -26 -25 -23 -23 -22 -21 -20 -19 -19 -19 -18 -17 -16 -15 -14 -15 -15 -14 -13 -14 -13 -13 -13 -14 -11 -11 -11 -11 -10 -10 -11 -11 -11 -11 -11 -10 -10
-27 -27 -28 -28 -28 -28 -27 -27 -26 -25 -24 -22 -21 -20 -19 -19 -19 -19 -18 -17 -17 -16 -16 -14 -15 -15 -14 -13 -14 -14 -13 -13 -13 -12 -11 -11 -10 -11 -11 -11 -11 -11 -11 -11 -11
-28 -27 -28 -28 -28 -28 -27 -27 -26 -26 -23 -22 -22 -21 -21 -19 -19 -19 -19 -17 -17 -16 -18 -16 -14 -14 -15 -14 -14 -14 -13 -12 -12 -13 -12 -12 -11 -12 -11 -11 -11 -11 -11 -11 -11
-28 -28 -28 -28 -28 -28 -27 -27 -27 -26 -25 -22 -22 -20 -20 -20 -19 -19 -19 -18 -18 -17 -17 -18 -14 -14 -14 -14 -13 -13 -12 -13 -13 -13 -13 -12 -11 -13 -12 -11 -11 -11 -11 -11 -11
-27 -28 -28 -28 -28 -28 -27 -27 -27 -26 -25 -23 -22 -21 -21 -21 -20 -20 -19 -18 -18 -18 -17 -17 -17 -13 -15 -14 -13 -13 -14 -14 -14 -13 -13 -13 -12 -12 -12 -11 -11 -11 -11 -11 -11
-27 -27 -28 -28 -28 -28 -27 -27 -26 -26 -25 -23 -22 -22 -22 -21 -19 -19 -19 -19 -19 -18 -18 -17 -17 -16 -15 -15 -15 -14 -14 -14 -14 -14 -13 -13 -12 -12 -12 -11 -10 -11 -11 -11 -11
-27 -27 -28 -28 -28 -28 -27 -27 -27 -26 -25 -24 -22 -23 -21 -20 -20 -19 -19 -19 -19 -20 -19 -18 -17 -18 -17 -16 -14 -14 -14 -14 -14 -14 -14 -13 -12 -12 -12 -11 -11 -10 -10 -11 -11
-27 -28 -28 -28 -28 -28 -27 -28 -27 -27 -25 -24 -23 -22 -22 -21 -21 -20 -21 -19 -19 -19 -20 -19 -18 -17 -18 -18 -17 -16 -15 -15 -14 -14 -13 -13 -11 -11 -12 -11 -11 -11 -11 -10 -10
-27 -28 -28 -28 -28 -28 -28 -28 -27 -27 -25 -25 -23 -21 -21 -22 -21 -21 -20 -20 -20 -20 -20 -18 -18 -18 -17 -17 -18 -17 -17 -17 -16 -14 -14 -13 -13 -11 -12 -11 -11 -11 -11 -11 -11
-26 -28 -28 -28 -28 -28 -28 -28 -27 -28 -27 -25 -24 -23 -23 -22 -22 -21 -20 -20 -20 -20 -20 -19 -19 -18 -18 -17 -18 -18 -18 -18 -17 -16 -14 -13 -13 -11 -11 -12 -12 -12 -12 -12 -11
-26 -28 -28 -28 -28 -28 -28 -28 -28 -28 -27 -26 -25 -23 -22 -22 -21 -22 -21 -20 -20 -20 -20 -19 -19 -19 -19 -18 -18 -18 -18 -18 -18 -16 -12 -12 -13 -11 -11 -12 -12 -13 -13 -12 -12
-25 -27 -28 -28 -28 -28 -28 -28 -28 -28 -27 -27 -26 -24 -23 -22 -22 -22 -21 -21 -21 -21 -20 -19 -19 -19 -18 -18 -18 -18 -18 -18 -18 -15 -14 -14 -12 -11 -11 -13 -13 -13 -13 -13 -13
-23 -26 -28 -28 -28 -28 -28 -28 -27 -27 -27 -27 -26 -25 -25 -24 -22 -22 -22 -22 -21 -21 -21 -20 -20 -20 -19 -19 -20 -19 -19 -20 -20 -19 -17 -15 -12 -12 -12 -13 -13 -13 -14 -14 -14
-23 -26 -28 -28 -29 -29 -29 -29 -28 -27 -27 -27 -26 -25 -24 -24 -24 -24 -23 -22 -22 -21 -21 -21 -21 -20 -20 -20 -20 -20 -20 -20 -20 -19 -18 -14 -13 -12 -13 -13 -13 -13 -14 -15 -15
-22 -25 -26 -28 -29 -29 -29 -29 -29 -28 -27 -27 -26 -25 -25 -24 -24 -24 -24 -23 -22 -23 -22 -22 -21 -20 -21 -21 -20 -20 -20 -20 -19 -19 -18 -16 -14 -14 -15 -14 -14 -14 -14 -15 -15
-22 -24 -26 -27 -28 -29 -30 -29 -29 -29 -28 -27 -26 -26 -25 -25 -24 -23 -23 -22 -22 -22 -23 -22 -22 -21 -21 -21 -21 -21 -20 -20 -20 -19 -19 -18 -16 -16 -15 -15 -16 -15 -15 -15 -15
-23 -24 -26 -27 -28 -29 -29 -29 -29 -29 -28 -27 -27 -26 -26 -25 -25 -24 -23 -23 -24 -24 -24 -22 -22 -22 -21 -21 -21 -21 -21 -20 -20 -20 -19 -19 -15 -18 -18 -17 -17 -16 -16 -16 -15
-23 -24 -26 -27 -27 -28 -29 -29 -29 -29 -28 -27 -27 -27 -26 -25 -25 -25 -24 -24 -24 -24 -24 -23 -22 -22 -22 -22 -21 -21 -21 -21 -21 -21 -19 -19 -17 -18 -18 -19 -18 -18 -17 -17 -17
-24 -24 -25 -27 -27 -27 -28 -29 -28 -28 -29 -27 -27 -27 -26 -26 -25 -25 -25 -24 -24 -24 -24 -23 -22 -23 -22 -22 -22 -22 -21 -22 -22 -21 -21 -18 -19 -18 -19 -20 -20 -19 -19 -18 -18
-23 -24 -25 -27 -28 -27 -28 -28 -28 -28 -28 -28 -27 -27 -27 -26 -26 -25 -25 -25 -25 -25 -24 -23 -23 -23 -22 -22 -22 -22 -22 -22 -21 -21 -21 -19 -18 -18 -19 -21 -20 -20 -20 -20 -19
-23 -24 -24 -26 -27 -28 -28 -28 -28 -28 -28 -28 -27 -27 -27 -27 -26 -26 -26 -26 -25 -25 -25 -25 -24 -24 -24 -23 -23 -23 -22 -22 -22 -22 -21 -21 -18 -20 -20 -20 -21 -21 -21 -21 -21
Height
5664 5658 5649 5641 5631 5625 5623 5625 5630 5637 5647 5658 5666 5674 5683 5690 5699 5710 5723 5735 5742 5750 5757 5763 5769 5775 5782 5786 5789 5794 5797 5805 5810 5814 5820 5821 5826 5829 5833 5836 5838 5840 5840 5843 5846
5647 5636 5623 5608 5596 5587 5584 5589 5596 5608 5622 5636 5646 5655 5667 5674 5685 5698 5715 5720 5730 5740 5748 5754 5759 5765 5772 5779 5783 5786 5791 5800 5806 5809 5813 5817 5821 5824 5829 5832 5836 5839 5839 5841 5845
5625 5608 5590 5577 5568 5564 5565 5566 5572 5584 5601 5613 5631 5641 5652 5661 5670 5691 5698 5709 5719 5729 5737 5745 5750 5752 5764 5771 5776 5780 5785 5796 5799 5802 5806 5811 5815 5820 5826 5830 5834 5835 5837 5840 5842
5603 5582 5569 5563 5558 5555 5557 5557 5561 5569 5585 5603 5623 5632 5640 5646 5660 5674 5684 5695 5707 5716 5727 5734 5742 5747 5754 5761 5767 5773 5781 5789 5793 5795 5800 5805 5809 5815 5821 5826 5826 5831 5835 5837 5839
5583 5567 5561 5557 5553 5552 5552 5552 5555 5561 5573 5592 5611 5619 5628 5635 5652 5659 5669 5679 5690 5703 5715 5725 5733 5739 5745 5752 5755 5764 5773 5779 5783 5788 5792 5799 5804 5809 5816 5819 5822 5827 5832 5833 5836
5567 5560 5557 5553 5551 5550 5549 5549 5552 5556 5568 5586 5598 5604 5615 5627 5635 5642 5655 5666 5675 5689 5701 5713 5723 5731 5736 5744 5750 5756 5760 5768 5773 5780 5785 5791 5797 5803 5810 5813 5817 5822 5828 5830 5832
5560 5557 5554 5550 5548 5547 5546 5546 5549 5552 5561 5577 5589 5600 5599 5617 5621 5630 5641 5652 5666 5674 5688 5700 5711 5720 5728 5735 5743 5748 5754 5758 5765 5772 5777 5782 5789 5797 5804 5808 5812 5816 5821 5826 5829
5556 5554 5551 5549 5547 5545 5543 5543 5545 5548 5558 5569 5578 5589 5599 5610 5615 5621 5631 5642 5654 5665 5674 5687 5698 5708 5717 5725 5732 5739 5746 5752 5759 5762 5770 5775 5784 5791 5796 5802 5806 5810 5815 5820 5824
5554 5551 5549 5547 5545 5543 5541 5540 5540 5544 5551 5557 5568 5579 5589 5598 5609 5615 5623 5634 5643 5655 5664 5673 5685 5696 5706 5714 5722 5728 5739 5746 5753 5757 5760 5766 5777 5783 5788 5795 5799 5804 5808 5813 5817
5552 5549 5546 5544 5542 5540 5537 5538 5538 5540 5546 5555 5564 5577 5588 5598 5605 5610 5617 5626 5634 5644 5655 5663 5672 5684 5694 5704 5714 5723 5727 5736 5745 5750 5753 5759 5769 5774 5779 5786 5792 5797 5801 5806 5811
5550 5548 5544 5542 5541 5538 5535 5534 5537 5538 5541 5548 5559 5571 5580 5590 5599 5608 5613 5618 5624 5634 5647 5656 5665 5677 5690 5697 5706 5714 5720 5728 5737 5742 5745 5751 5757 5765 5770 5777 5784 5789 5794 5799 5804
5549 5547 5543 5541 5539 5538 5533 5529 5530 5535 5541 5547 5556 5569 5580 5587 5593 5603 5608 5614 5618 5628 5636 5647 5658 5669 5676 5685 5694 5704 5712 5720 5726 5733 5737 5741 5746 5756 5762 5769 5777 5782 5786 5792 5798
5547 5545 5542 5541 5538 5536 5532 5527 5527 5531 5538 5546 5552 5567 5576 5582 5588 5592 5601 5606 5612 5620 5629 5639 5653 5659 5666 5672 5683 5693 5701 5707 5714 5721 5726 5732 5734 5744 5756 5759 5767 5774 5780 5785 5790
5545 5544 5541 5540 5538 5535 5531 5527 5526 5530 5536 5543 5549 5559 5566 5575 5583 5586 5594 5600 5606 5615 5623 5628 5639 5646 5658 5665 5673 5682 5690 5695 5702 5710 5715 5720 5725 5734 5746 5752 5757 5764 5769 5775 5780
5544 5542 5541 5539 5537 5535 5532 5528 5527 5529 5535 5543 5547 5553 5563 5574 5578 5586 5586 5594 5603 5610 5618 5626 5632 5640 5648 5660 5664 5673 5680 5683 5687 5692 5701 5710 5715 5727 5735 5744 5750 5754 5758 5763 5767
5543 5541 5541 5540 5538 5535 5533 5531 5529 5532 5534 5541 5547 5550 5560 5569 5573 5584 5590 5592 5600 5606 5612 5617 5623 5629 5638 5646 5652 5660 5666 5672 5676 5681 5686 5704 5707 5712 5725 5737 5740 5743 5747 5752 5756
5542 5539 5539 5538 5537 5536 5534 5533 5532 5531 5534 5538 5541 5546 5553 5564 5569 5574 5584 5589 5595 5602 5605 5612 5617 5623 5630 5636 5641 5648 5656 5661 5666 5668 5680 5690 5696 5709 5714 5722 5729 5733 5735 5740 5745
5541 5538 5538 5536 5535 5535 5533 5533 5532 5531 5532 5534 5538 5545 5549 5556 5563 5568 5572 5578 5587 5592 5600 5606 5615 5620 5626 5630 5639 5643 5647 5652 5655 5660 5667 5672 5685 5700 5701 5712 5719 5724 5724 5728 5733
5540 5536 5535 5534 5532 5533 5533 5531 5530 5529 5530 5534 5538 5543 5547 5551 5559 5562 5566 5573 5580 5589 5596 5601 5607 5614 5620 5623 5626 5629 5633 5645 5647 5651 5656 5664 5677 5688 5692 5699 5706 5711 5714 5715 5718
5539 5534 5532 5531 5529 5529 5529 5528 5527 5526 5527 5531 5536 5541 5544 5547 5552 5555 5561 5571 5577 5582 5587 5594 5600 5606 5610 5614 5618 5622 5630 5633 5634 5640 5644 5654 5662 5673 5679 5683 5692 5698 5702 5703 5705
5538 5532 5529 5527 5525 5525 5525 5525 5524 5522 5523 5528 5535 5540 5542 5545 5547 5549 5553 5561 5569 5577 5580 5585 5591 5598 5600 5604 5613 5617 5617 5623 5627 5631 5636 5643 5651 5659 5667 5672 5678 5686 5689 5693 5696
5537 5531 5527 5524 5522 5520 5520 5521 5522 5520 5521 5526 5530 5535 5538 5539 5543 5547 5552 5557 5561 5565 5571 5579 5581 5585 5594 5598 5603 5607 5611 5615 5615 5624 5629 5634 5643 5649 5654 5661 5667 5671 5677 5681 5685
5535 5529 5524 5522 5519 5518 5517 5518 5519 5519 5520 5524 5526 5529 5533 5535 5538 5541 5546 5548 5551 5555 5560 5569 5571 5577 5581 5586 5591 5594 5602 5607 5611 5614 5618 5624 5636 5641 5643 5648 5653 5658 5663 5669 5673
5533 5529 5523 5520 5517 5515 5514 5515 5516 5517 5518 5521 5523 5524 5528 5531 5534 5536 5538 5541 5546 5548 5554 5558 5564 5567 5574 5578 5582 5588 5593 5598 5601 5601 5615 5616 5628 5627 5636 5638 5640 5644 5650 5655 5659
5531 5527 5522 5519 5516 5514 5512 5511 5512 5513 5515 5517 5520 5519 5523 5528 5530 5532 5535 5537 5541 5543 5549 5556 5558 5560 5563 5568 5572 5576 5581 5585 5588 5597 5596 5618 5612 5619 5623 5627 5628 5631 5637 5642 5643
5527 5524 5520 5515 5513 5512 5510 5509 5508 5511 5512 5512 5515 5515 5519 5522 5524 5527 5529 5532 5534 5538 5541 5545 5548 5551 5556 5559 5562 5565 5568 5573 5579 5584 5586 5597 5603 5612 5612 5615 5618 5621 5623 5625 5629
5522 5520 5517 5513 5509 5509 5507 5507 5505 5505 5507 5507 5509 5511 5514 5515 5517 5520 5524 5527 5530 5532 5535 5538 5538 5543 5545 5548 5550 5552 5562 5565 5571 5572 5580 5582 5601 5598 5599 5605 5610 5609 5609 5612 5615
Wind_Speed
58 64 71 76 83 89 92 93 92 89 83 77 70 74 75 76 72 76 71 61 61 57 56 56 49 52 49 48 47 45 44 39 35 32 25 25 23 20 17 18 19 18 18 18 18
64 71 79 88 91 80 74 71 71 74 74 68 71 73 75 76 75 78 69 67 65 61 60 55 61 55 54 49 49 49 47 40 36 34 32 28 28 26 23 22 21 19 19 17 16
72 80 87 68 54 44 40 40 55 68 67 74 66 62 74 75 79 72 77 70 66 65 61 62 58 57 51 53 52 52 49 42 40 38 37 33 31 29 26 22 21 23 21 18 16
78 77 52 40 35 31 33 35 39 53 66 66 53 60 66 74 77 73 77 73 69 67 64 64 62 62 65 60 54 55 50 45 43 43 41 37 35 32 29 26 28 25 22 20 19
76 48 35 31 23 24 23 29 34 40 53 55 42 53 44 68 73 74 69 76 69 72 65 65 66 61 59 51 52 57 54 53 51 47 43 40 38 35 30 30 31 27 24 23 23
57 32 29 25 22 22 22 24 31 33 47 50 66 48 53 54 58 68 71 74 73 70 70 70 65 66 59 55 52 51 45 55 56 48 49 45 42 39 34 33 33 30 28 27 26
40 27 25 22 21 20 20 18 26 27 43 52 43 59 54 32 49 62 69 67 76 71 70 70 72 64 64 58 53 52 45 44 51 51 48 49 46 41 36 35 35 34 31 30 29
29 24 22 21 21 20 20 23 31 28 46 57 54 53 47 39 41 49 58 68 72 75 67 72 75 74 64 63 57 54 50 47 43 43 46 49 46 39 39 38 37 37 35 33 32
24 22 22 23 24 25 24 20 22 30 50 69 44 61 56 46 34 40 44 55 65 77 64 69 74 76 75 65 62 57 55 52 48 45 45 46 43 38 41 40 39 39 38 36 36
22 20 19 19 19 20 22 22 20 26 42 63 62 49 40 49 37 33 31 37 55 71 73 60 74 74 79 75 71 64 62 56 53 50 48 46 41 39 40 41 40 40 40 39 37
19 17 19 19 20 21 21 20 25 24 41 58 63 62 38 26 33 38 35 38 42 59 70 69 66 73 75 76 75 70 63 57 53 54 53 51 49 44 44 44 42 42 42 42 39
18 17 17 18 19 21 23 18 23 21 37 56 65 65 28 34 29 36 39 46 39 42 55 68 70 65 65 72 71 69 70 66 56 55 57 56 56 51 50 48 47 45 44 43 41
19 16 17 19 23 22 22 19 19 22 32 51 63 52 39 35 35 29 44 43 40 39 40 50 64 65 60 64 71 71 70 69 69 62 58 60 63 58 53 54 51 49 47 46 42
20 18 19 19 18 19 20 19 15 21 26 45 60 61 41 28 29 35 37 40 37 32 26 38 51 65 63 57 60 62 61 67 74 76 71 74 75 65 57 57 55 52 52 50 48
20 20 16 14 15 17 17 17 10 18 26 36 57 69 49 31 34 27 50 46 39 38 32 36 37 52 65 64 60 58 53 52 58 64 67 70 77 72 67 59 54 55 54 53 53
20 20 17 11 12 14 14 15 9 14 16 27 43 59 56 39 42 41 27 31 33 34 36 34 34 42 50 58 57 58 53 49 53 56 62 63 66 66 63 64 66 63 59 55 54
22 18 15 13 13 14 15 13 10 13 16 22 28 56 56 49 40 43 48 33 36 36 31 41 29 30 39 49 58 60 55 56 58 61 65 61 62 60 59 60 58 62 62 61 57
27 20 20 19 16 16 17 14 11 16 16 20 26 35 66 56 39 34 37 40 48 39 41 41 43 31 30 39 47 53 60 59 61 66 66 66 61 55 59 54 53 54 62 61 60
33 20 22 24 22 20 19 18 15 16 21 21 22 29 28 45 51 41 37 40 43 39 45 46 44 40 38 32 38 51 56 54 56 60 63 66 66 60 58 54 48 47 48 59 68
33 23 21 24 26 24 22 21 20 18 22 21 26 19 24 37 43 43 50 39 38 39 41 43 44 41 40 41 36 38 45 53 58 59 63 67 69 65 62 59 49 48 48 48 50
31 25 20 22 25 24 24 21 18 17 23 30 30 29 23 21 34 35 43 51 55 50 45 46 46 47 42 45 43 41 43 47 53 57 59 60 60 61 59 58 55 49 48 49 49
31 26 26 22 19 20 22 19 15 17 23 30 35 33 19 24 11 35 36 47 49 51 55 48 51 52 48 47 45 45 43 40 45 48 56 60 61 57 58 58 55 52 47 47 49
29 27 25 21 21 18 17 17 14 13 23 24 32 37 33 26 25 21 21 31 33 41 47 56 59 55 51 49 49 49 48 46 42 42 46 52 56 54 54 54 53 51 52 52 50
26 24 22 21 20 18 16 18 17 12 15 32 24 28 40 29 24 23 19 26 19 25 41 45 40 40 44 40 44 44 47 47 48 47 42 45 45 52 51 50 50 51 50 51 50
26 23 22 19 20 17 15 13 22 18 14 29 33 28 35 38 28 29 31 20 33 21 31 37 39 50 42 37 56 49 46 46 47 48 53 41 43 44 45 49 55 55 51 47 48
26 23 21 18 19 16 15 14 18 22 17 19 37 37 27 27 39 38 31 33 28 30 29 41 29 20 19 49 38 42 41 44 52 46 43 48 50 43 43 40 41 43 46 50 55
25 23 22 19 21 20 22 18 16 18 20 20 31 40 40 37 34 45 42 36 33 32 34 39 44 42 29 29 37 53 50 50 45 48 45 48 48 45 47 44 41 41 44 44 46
Wind_Direction
295 294 289 284 281 276 270 266 263 259 256 254 249 242 239 236 236 225 223 220 222 222 225 224 224 220 222 223 220 220 221 216 216 217 208 214 213 212 209 220 220 202 199 194 194
303 299 295 288 286 283 275 265 257 252 248 241 238 236 235 237 232 225 223 221 220 221 222 225 223 218 218 223 223 221 219 215 217 218 216 215 216 213 205 218 220 211 208 207 198
309 304 298 296 290 278 264 254 237 230 226 226 230 228 230 232 232 229 222 221 219 220 220 225 226 230 221 224 226 222 219 218 216 219 219 215 218 217 213 214 224 217 212 211 214
313 307 301 299 291 273 258 257 243 227 222 219 225 230 233 229 231 229 229 220 219 219 220 222 227 228 221 216 219 226 226 221 218 219 221 219 218 219 216 213 222 218 214 214 218
315 308 303 302 287 279 267 249 231 229 217 210 195 211 228 230 230 230 233 223 217 217 219 219 223 229 231 232 229 217 223 222 218 219 222 222 222 220 218 215 223 220 214 217 221
319 305 307 303 291 288 272 268 230 215 208 199 204 205 225 232 229 233 230 227 221 215 215 217 222 225 229 228 228 231 233 219 220 216 219 221 222 222 222 222 222 222 216 218 222
316 303 308 303 297 292 290 275 221 209 199 191 204 208 219 211 227 231 231 230 225 219 213 215 218 223 227 229 225 228 229 235 216 214 217 220 222 222 220 225 226 226 223 221 223
309 303 300 301 296 296 291 281 222 213 191 193 192 186 209 221 231 231 234 232 224 223 221 215 218 219 224 226 226 227 225 226 232 230 217 222 220 221 223 223 226 228 226 225 225
302 301 298 297 297 290 280 275 250 212 189 200 195 199 214 220 226 234 235 233 228 224 221 221 215 221 219 224 225 225 224 223 224 227 232 231 219 224 226 227 226 228 228 225 226
301 304 310 302 308 312 289 257 259 229 202 200 204 193 203 217 209 226 226 230 231 225 224 224 220 216 221 220 223 225 227 223 222 225 230 231 230 223 228 227 228 227 229 228 229
303 304 307 300 316 316 316 279 251 231 208 196 197 210 220 211 214 219 238 242 234 227 226 224 227 219 218 223 225 227 230 231 227 227 228 231 231 225 227 230 228 229 229 229 229
300 304 307 315 318 327 324 301 242 238 212 199 197 199 212 212 199 201 214 219 230 229 226 226 226 226 226 220 223 227 229 234 233 230 232 232 232 228 229 231 232 232 233 233 232
299 295 310 313 321 324 321 317 240 231 210 203 204 202 203 201 199 186 210 208 199 216 227 228 225 225 226 229 224 223 228 231 232 232 233 233 235 234 231 235 235 236 237 237 237
299 294 308 317 322 332 325 326 247 232 208 205 202 195 197 200 216 217 219 213 220 223 240 230 225 222 224 227 230 232 232 230 232 231 237 236 236 234 235 236 238 239 241 242 242
304 295 312 311 332 328 334 338 247 244 224 205 204 200 200 209 216 236 238 235 253 256 254 240 234 227 228 227 227 230 232 238 240 236 232 235 240 237 236 238 240 243 245 246 246
318 290 302 302 336 358 349 345 274 257 241 210 209 217 216 210 236 222 217 235 235 223 227 234 234 231 226 226 225 226 228 231 239 242 240 232 237 240 238 237 241 245 247 248 249
332 290 289 283 305 319 340 331 305 261 233 218 208 208 209 206 190 199 204 197 211 208 219 222 227 234 232 231 227 226 226 229 235 238 244 241 240 241 242 239 236 241 246 247 248
346 297 283 279 297 302 306 315 315 275 238 238 219 206 203 210 193 189 186 201 216 211 215 227 230 236 238 237 239 238 231 234 235 239 243 244 244 243 248 247 243 241 242 244 247
353 318 285 278 287 294 296 303 297 278 241 215 223 216 224 226 210 204 205 205 213 225 227 231 236 239 239 241 239 235 231 231 235 238 242 246 246 245 246 249 246 242 242 244 245
354 343 305 287 283 288 288 297 299 293 229 209 202 204 221 229 238 243 233 208 213 221 223 230 239 241 238 233 235 243 238 234 234 238 241 243 244 244 243 245 240 239 239 239 244
351 348 334 313 290 286 285 293 301 303 219 220 202 204 193 194 222 231 240 245 239 236 238 238 235 232 233 240 235 238 243 243 239 238 244 247 246 245 243 244 242 237 237 240 239
345 345 338 335 318 298 280 283 292 314 217 223 206 211 222 217 208 219 229 242 245 244 235 234 236 238 241 242 239 237 238 243 246 248 249 250 249 252 251 249 249 249 248 244 243
340 341 338 335 329 314 289 269 270 296 217 212 227 228 222 224 226 189 185 226 239 230 230 234 242 247 243 240 235 233 237 241 244 244 243 245 244 248 253 256 254 251 249 248 248
334 332 332 331 332 323 308 262 257 260 253 215 231 238 227 225 229 214 197 210 203 230 224 219 219 233 240 232 231 233 238 240 238 240 243 244 244 248 247 254 256 254 251 251 249
329 328 326 325 325 334 317 282 250 252 260 232 225 240 236 234 225 222 211 195 204 208 212 219 238 225 230 235 237 237 241 237 240 240 239 241 240 242 242 244 249 252 251 248 249
317 325 317 305 305 321 321 286 268 257 257 253 227 235 237 248 241 237 230 238 243 238 226 209 214 205 238 236 215 221 217 223 230 241 237 231 232 238 239 239 245 250 252 252 251
309 316 321 309 299 299 302 304 289 272 252 249 236 236 242 248 249 246 249 248 246 250 251 242 238 240 244 236 241 242 240 240 236 232 230 228 232 231 238 242 245 243 244 245 247